Fox Island, WA

10:40 AM PDT on September 30, 2016 (GMT -0700)
Tacoma Narrows

Weather History for KTIW - October, 2013

Change the Weather History Date:

Thursday, October 24, 2013

  Actual Average Record
Temperature  
Mean Temperature 46 °F -  
Max Temperature 48 °F 53 °F 60 °F (2000)
Min Temperature 45 °F 43 °F 39 °F (2008)
Degree Days  
Heating Degree Days 18    
Moisture  
Dew Point 45 °F    
Average Humidity 94    
Maximum Humidity 97    
Minimum Humidity 93    
Precipitation  
Precipitation 0.00 in - - ()
Sea Level Pressure  
Sea Level Pressure 30.08 in    
Wind  
Wind Speed 0 mph (South)    
Max Wind Speed 4 mph    
Max Gust Speed -    
Averages and records for this station are not official NWS values.
T = Trace of Precipitation, MM = Missing Value Source: NWS Daily Summary

Daily Weather History Graph

Daily Weather History Graph

Search for Another Location

Airport or City:

Trip Planner

Search our weather history database for the weather conditions in past years. The results will help you decide how hot, cold, wet, or windy it might be!

Date:

Astronomy

Oct. 24, 2013 Rise Set
Actual Time 7:42 AM PDT 6:05 PM PDT
Civil Twilight 7:10 AM PDT 6:37 PM PDT
Nautical Twilight 6:35 AM PDT 7:12 PM PDT
Astronomical Twilight 5:59 AM PDT 7:48 PM PDT
Moon 10:27 PM PDT (10/24) 12:55 PM PDT (10/24)
Length of Visible Light 11h 26m
Length of Day
10h 23m
Waning Gibbous, 70% of the Moon is Illuminated
Oct 24
Waning Gibbous
Oct 26
Last Quarter
Nov 3
New
Nov 9
First Quarter
Nov 17
Full

Hourly Weather History & Observations

Time (PDT) Temp. Windchill Dew Point Humidity Pressure Visibility Wind Dir Wind Speed Gust Speed Precip Events Conditions
12:53 AM 45.0 °F - 43.0 °F 93% 30.05 in 0.2 mi Calm Calm - N/A Fog Fog
1:53 AM 46.0 °F - 44.1 °F 93% 30.04 in 0.2 mi Calm Calm - N/A Fog Fog
2:53 AM 46.0 °F - 44.1 °F 93% 30.04 in 0.2 mi Calm Calm - N/A Fog Fog
3:53 AM 45.0 °F - 44.1 °F 97% 30.04 in 0.2 mi Calm Calm - N/A Fog Fog
4:53 AM 46.0 °F - 44.1 °F 93% 30.04 in 0.2 mi Calm Calm - N/A Fog Fog
5:53 AM 45.0 °F - 44.1 °F 97% 30.05 in 0.2 mi Calm Calm - N/A Fog Fog
6:53 AM 45.0 °F - 43.0 °F 93% 30.05 in 0.2 mi Calm Calm - N/A Fog Fog
7:53 AM 45.0 °F - 43.0 °F 93% 30.05 in 0.2 mi Calm Calm - N/A Fog Fog
8:53 AM 45.0 °F - 44.1 °F 97% 30.07 in 0.2 mi Calm Calm - N/A Fog Fog
9:53 AM 46.0 °F - 44.1 °F 93% 30.07 in 0.2 mi Calm Calm - N/A Fog Fog
10:53 AM 46.0 °F 44.8 °F 44.1 °F 93% 30.08 in 0.2 mi West 3.5 mph - N/A Fog Fog
11:53 AM 46.9 °F - 45.0 °F 93% 30.08 in 0.2 mi Calm Calm - N/A Fog Fog
12:34 PM 46.4 °F - 44.6 °F 93% 30.07 in 0.2 mi Calm Calm - N/A Fog Fog
12:53 PM 46.9 °F - 45.0 °F 93% 30.07 in 0.2 mi Calm Calm - N/A Fog Fog
1:53 PM 46.9 °F - 45.0 °F 93% 30.06 in 0.2 mi SE 3.5 mph - N/A Fog Fog
2:53 PM 46.9 °F - 46.0 °F 97% 30.06 in 0.2 mi Calm Calm - N/A Fog Fog
3:53 PM 46.9 °F - 45.0 °F 93% 30.06 in 0.2 mi Calm Calm - N/A Fog Fog
4:53 PM 46.9 °F - 46.0 °F 97% 30.06 in 0.2 mi Calm Calm - N/A Fog Fog
4:54 PM 46.9 °F - 46.0 °F 97% 30.06 in 0.2 mi Calm Calm - N/A Fog Fog
5:50 PM 46.4 °F - 44.6 °F 93% 30.06 in 0.2 mi Calm Calm - N/A Fog Fog
5:53 PM 46.9 °F - 45.0 °F 93% 30.07 in 0.2 mi Calm Calm - N/A Fog Fog
6:53 PM 46.9 °F - 45.0 °F 93% 30.09 in 0.2 mi Calm Calm - N/A Fog Fog
7:53 PM 46.9 °F - 45.0 °F 93% 30.10 in 0.2 mi Calm Calm - N/A Fog Fog
8:00 PM 46.4 °F - 44.6 °F 93% 30.09 in 0.2 mi Calm Calm - N/A Fog Fog
8:08 PM 46.4 °F - 44.6 °F 93% 30.09 in 0.5 mi Calm Calm - N/A Fog Fog
8:20 PM 46.4 °F - 44.6 °F 93% 30.10 in 0.2 mi Calm Calm - N/A Fog Fog
8:41 PM 46.4 °F - 44.6 °F 93% 30.10 in 0.2 mi Calm Calm - N/A Fog Fog
8:53 PM 46.9 °F - 45.0 °F 93% 30.11 in 0.8 mi Calm Calm - N/A   Mist
9:53 PM 46.9 °F - 46.0 °F 97% 30.12 in 0.5 mi Calm Calm - N/A Fog Fog
10:53 PM 48.0 °F - 46.0 °F 93% 30.13 in 1.0 mi Calm Calm - N/A   Mist
11:21 PM 48.2 °F - 46.4 °F 93% 30.13 in 0.8 mi Calm Calm - N/A   Mist
11:53 PM 48.0 °F - 46.0 °F 93% 30.14 in 0.5 mi South 3.5 mph - N/A Fog Fog